Stations météo

réclame
Mon MeteoGroup
Stockholm/observat., Suède (2484): Température de l'air & dewpoint: 16.08.2019 02:00:00 - 22.08.2019 02:00:00 (CEST)Stockholm/observat., Suède (2484): reduced air pressure: 16.08.2019 02:00:00 - 22.08.2019 02:00:00 (CEST)
Date & Time tt [°C] td [°C] ppp [hPa]
22.08.2019 02:00:00 14,8 9,5 1022,3
22.08.2019 01:00:00 14,7 9,1 1022,1
22.08.2019 00:00:00 15,1 9,0 1021,9
21.08.2019 23:00:00 15,7 8,9 1021,6
21.08.2019 22:00:00 16,0 8,7 1021,2
21.08.2019 21:00:00 16,5 8,7 1020,7
21.08.2019 20:00:00 17,4 9,6 1020,6
21.08.2019 19:00:00 18,3 10,4 1020,3
21.08.2019 18:00:00 18,4 11,0 1020,2
21.08.2019 17:00:00 18,8 9,8 1020,1
21.08.2019 16:00:00 19,1 9,8 1020,0
21.08.2019 15:00:00 19,8 10,2 1020,0
21.08.2019 14:00:00 19,8 10,2 1020,0
21.08.2019 13:00:00 20,8 9,7 1020,1
21.08.2019 12:00:00 20,0 10,4 1020,4
21.08.2019 11:00:00 19,1 11,2 1020,7
21.08.2019 10:00:00 17,9 11,7 1020,8
21.08.2019 09:00:00 16,3 11,7 1020,9
21.08.2019 08:00:00 15,4 11,2 1020,9
21.08.2019 07:00:00 13,6 10,9 1020,5
21.08.2019 06:00:00 13,0 11,1 1020,4
21.08.2019 05:00:00 13,4 11,1 1020,2
21.08.2019 04:00:00 13,5 11,2 1019,8
21.08.2019 03:00:00 13,8 11,3 1019,5
21.08.2019 02:00:00 13,9 11,2 1019,1
21.08.2019 01:00:00 14,5 11,8 1018,8
21.08.2019 00:00:00 15,3 11,7 1018,5
20.08.2019 23:00:00 15,5 12,8 1018,4
20.08.2019 22:00:00 15,9 12,8 1018,4
20.08.2019 21:00:00 16,9 13,0 1018,1
20.08.2019 20:00:00 17,5 12,0 1017,6
20.08.2019 19:00:00 18,7 11,8 1017,1
20.08.2019 18:00:00 19,7 11,7 1016,9
20.08.2019 17:00:00 20,6 11,8 1016,5
20.08.2019 16:00:00 20,8 11,7 1016,4
20.08.2019 15:00:00 21,6 11,9 1016,2
20.08.2019 14:00:00 20,9 10,4 1015,9
20.08.2019 13:00:00 20,5 10,9 1015,8
20.08.2019 12:00:00 19,2 11,5 1015,8
20.08.2019 11:00:00 18,8 12,1 1015,4
20.08.2019 10:00:00 18,4 12,2 1015,3
20.08.2019 09:00:00 17,0 12,1 1015,1
20.08.2019 08:00:00 16,1 12,1 1014,9
20.08.2019 07:00:00 14,6 11,7 1014,5
20.08.2019 06:00:00 13,9 11,6 1014,2
20.08.2019 05:00:00 14,0 11,3 1013,5
20.08.2019 04:00:00 14,3 11,6 1013,1
20.08.2019 03:00:00 14,7 11,7 1012,7
20.08.2019 02:00:00 15,3 11,7 1012,2
20.08.2019 01:00:00 15,2 12,3 1011,8
20.08.2019 00:00:00 15,5 12,4 1011,5
19.08.2019 23:00:00 16,1 12,6 1011,1
19.08.2019 22:00:00 16,3 13,0 1010,8
19.08.2019 21:00:00 17,0 12,7 1010,6
19.08.2019 20:00:00 18,2 12,0 1010,2
19.08.2019 19:00:00 19,3 10,0 1009,8
19.08.2019 18:00:00 19,7 10,7 1009,3
19.08.2019 17:00:00 21,0 9,3 1008,9
19.08.2019 16:00:00 20,6 9,8 1008,7
19.08.2019 15:00:00 21,4 10,8 1008,1
19.08.2019 14:00:00 20,1 10,2 1007,8
19.08.2019 13:00:00 20,7 10,8 1007,2
19.08.2019 12:00:00 18,5 11,6 1006,7
19.08.2019 11:00:00 17,9 12,1 1005,9
19.08.2019 10:00:00 16,8 12,3 1005,7
19.08.2019 09:00:00 15,9 12,8 1004,9
19.08.2019 08:00:00 14,8 13,0 1004,0
19.08.2019 07:00:00 14,2 13,1 1003,5
19.08.2019 06:00:00 13,5 12,7 1002,7
19.08.2019 05:00:00 13,6 13,1 1002,1
19.08.2019 04:00:00 14,0 13,4 1001,3
19.08.2019 03:00:00 14,1 13,6 1001,4
19.08.2019 02:00:00 14,1 13,6 1001,6
19.08.2019 01:00:00 14,3 13,7 1001,5
19.08.2019 00:00:00 14,3 13,5 1001,9
18.08.2019 23:00:00 15,3 14,5 1002,7
18.08.2019 22:00:00 16,1 15,0 1003,0
18.08.2019 21:00:00 17,3 16,0 1003,7
18.08.2019 20:00:00 18,1 16,1 1003,9
18.08.2019 19:00:00 19,6 15,5 1003,7
18.08.2019 18:00:00 20,1 15,1 1003,9
18.08.2019 17:00:00 20,1 15,1 1003,9
18.08.2019 16:00:00 19,9 14,7 1003,9
18.08.2019 15:00:00 20,1 14,5 1004,5
18.08.2019 14:00:00 20,9 15,4 1004,9
18.08.2019 13:00:00 22,2 15,3 1005,0
18.08.2019 12:00:00 20,3 14,9 1005,6
18.08.2019 11:00:00 19,4 15,3 1005,7
18.08.2019 10:00:00 18,5 15,7 1005,9
18.08.2019 09:00:00 18,1 15,7 1005,6
18.08.2019 08:00:00 17,3 15,1 1005,7
18.08.2019 07:00:00 17,0 15,0 1006,0
18.08.2019 06:00:00 16,7 14,9 1006,2
18.08.2019 05:00:00 16,6 15,1 1006,2
18.08.2019 04:00:00 16,8 15,1 1006,4
18.08.2019 03:00:00 16,5 14,9 1006,9
18.08.2019 02:00:00 16,2 14,9 1007,1
18.08.2019 01:00:00 15,8 14,8 1007,4
18.08.2019 00:00:00 16,2 14,2 1007,5
17.08.2019 23:00:00 18,1 11,9 1007,4
17.08.2019 22:00:00 18,0 12,7 1007,7
17.08.2019 21:00:00 17,8 13,3 1008,0
17.08.2019 20:00:00 17,9 14,6 1008,6
17.08.2019 19:00:00 18,4 13,5 1008,7
17.08.2019 18:00:00 19,0 11,6 1008,7
17.08.2019 17:00:00 19,1 11,2 1008,9
17.08.2019 16:00:00 19,8 12,8 1009,1
17.08.2019 15:00:00 20,4 12,4 1009,4
17.08.2019 14:00:00 20,8 11,4 1009,6
17.08.2019 13:00:00 19,7 9,0 1010,0
17.08.2019 12:00:00 19,4 10,4 1010,4
17.08.2019 11:00:00 20,3 10,1 1010,4
17.08.2019 10:00:00 19,6 10,6 1010,5
17.08.2019 09:00:00 18,1 13,0 1010,3
17.08.2019 08:00:00 17,1 14,0 1010,5
17.08.2019 07:00:00 16,2 13,1 1010,4
17.08.2019 06:00:00 16,5 13,0 1009,9
17.08.2019 05:00:00 16,4 13,7 1010,1
17.08.2019 04:00:00 16,7 14,7 1010,0
17.08.2019 03:00:00 17,4 15,7 1010,0
17.08.2019 02:00:00 17,5 16,0 1009,8
17.08.2019 01:00:00 17,3 15,8 1009,6
17.08.2019 00:00:00 16,9 15,6 1009,9
16.08.2019 23:00:00 16,7 15,2 1009,9
16.08.2019 22:00:00 17,3 15,5 1010,1
16.08.2019 21:00:00 17,8 15,4 1010,0
16.08.2019 20:00:00 18,7 15,4 1009,7
16.08.2019 19:00:00 20,0 15,0 1009,6
16.08.2019 18:00:00 20,6 13,8 1009,5
16.08.2019 17:00:00 20,5 13,9 1009,5
16.08.2019 16:00:00 21,3 12,4 1009,3
16.08.2019 15:00:00 21,4 11,7 1009,5
16.08.2019 14:00:00 21,0 13,9 1009,8
16.08.2019 13:00:00 21,1 14,0 1009,9
16.08.2019 12:00:00 21,3 14,2 1010,0
16.08.2019 11:00:00 19,2 13,6 1010,4
16.08.2019 10:00:00 17,7 13,2 1010,7
16.08.2019 09:00:00 18,3 12,7 1010,6
16.08.2019 08:00:00 17,2 13,3 1010,8
16.08.2019 07:00:00 16,5 11,2 1010,9
16.08.2019 06:00:00 16,2 11,1 1010,9
16.08.2019 05:00:00 15,7 11,7 1011,2
16.08.2019 04:00:00 15,0 13,4 1011,4
16.08.2019 03:00:00 14,7 13,1 1011,4
16.08.2019 02:00:00 15,0 12,3 1011,4

tt = Température de l'air
td = dewpoint
ppp = reduced air pressure

stations d'obs. à proximité